Location: ?????
(33.6267°N, 35.4675°E)
Time: 10:20:27
(UTC+00:00)

Envisat - Pass Details

Date: 12 November 2019
Orbit: 764 x 766 km, 98.1° (Epoch: 08 December)

Event Time Altitude Azimuth Distance (km) Brightness Sun altitude
Rises 14:52:52 0° 138° (SE) 3,220 6.0 -3.8°
Reaches altitude 10° 14:55:28 10° 126° (SE) 2,297 5.1 -4.4°
Maximum altitude 14:59:39 27° 70° (ENE) 1,447 3.9 -5.2°
Drops below altitude 10° 15:03:51 10° 14° (NNE) 2,307 5.2 -6.0°
Sets 15:06:27 0° 2° (N) 3,237 6.0 -6.5°
